Regional Weather Roundup
Issued by NWS

Home | Current Version | Previous Version | Text Only | Print | Product List | Glossary On
Versions: 1 2 3 4 5 6 7 8 9 10 11 12 13 14 15 16 17 18 19 20 21 22 23 24 25 26 27 28
000
ASUS42 KKEY 230910
RWRKEY

FLORIDA REGIONAL WEATHER ROUNDUP FOR THE FLORIDA KEYS
NATIONAL WEATHER SERVICE KEY WEST FLORIDA
500 AM EDT SUN JUL 23 2017

...SOUTH FLORIDA AND THE KEYS...

CITY           SKY/WX    TMP DP  RH WIND       PRES   REMARKS
FORT MYERS     CLOUDY    76  76 100 CALM      30.01F
SW REGIONAL AP CLOUDY    76  74  93 CALM      30.02F
NAPLES         PTCLDY    76  75  97 E3        30.01F
MIAMI          MOCLDY    84  75  74 SE6       30.01F HX  92
WEST KENDALL   PTCLDY    79  75  87 CALM      30.01F
HOMESTEAD      PTCLDY    80  78  95 SE3       30.00F
MARATHON       PTCLDY    84  77  79 SE6       30.00F HX  94
BOCA CHICA NAS CLEAR     83  76  79 SE10      30.00F HX  91
KEY WEST INTL  CLEAR     85  75  72 SE9       30.00F HX  93

...INTERNATIONAL WEATHER...

CITY           SKY/WX    TMP DP  RH WIND       PRES   REMARKS
NASSAU BAHAMAS MOCLDY    82  77  83 E5        30.04F HX  91
CANCUN MEXICO  MOCLDY    82  79  89 E5        29.97F HX  93
COZUMEL MEXICO PTCLDY    79  75  89 CALM      29.95F

ADJACENT COASTAL WATERS...

STATION/POSITION TIME  SKY/WX   TEMP    WIND        PRES    WAVE
                                AIR SEA DIR/SP/G            HT/PER
                 (UTC)          (F)     (DEG/KT/KT) (MB)    (FT/S)
PULASKI SHOAL LI 0900            85     140/ 10/ 11 1016.0F
SAND KEY         0850            84     140/ 14/ 16 1016.5F
LONG KEY         NOT AVBL
MOLASSES REEF    NOT AVBL
FOWEY ROCKS      0900            84 87  130/ 13/ 14 1016.6F
Buoy 42097       0830               87                N/A     1/ 4

$$




USA.gov is the U.S. government's official web portal to all federal, state and local government web resources and services.